Fort Polk, LA

4:07 PM CDT on July 24, 2017 (GMT -0500)
Fort Polk

Weather History for KAQV - June, 2013

Change the Weather History Date:

Thursday, June 13, 2013

  Actual Average (KPOE) Record (KPOE)
Temperature  
Mean Temperature 84 °F -  
Max Temperature 93 °F 86 °F 99 °F (2011)
Min Temperature 75 °F 68 °F 68 °F (1999)
Cooling Degree Days 19    
Growing Degree Days 34 (Base 50)    
Moisture  
Dew Point 74 °F    
Average Humidity 78    
Maximum Humidity 100    
Minimum Humidity 49    
Precipitation  
Precipitation 0.00 in - - ()
Sea Level Pressure  
Sea Level Pressure 30.00 in    
Wind  
Wind Speed 2 mph (WSW)    
Max Wind Speed 7 mph    
Max Gust Speed -    
Visibility 9 miles    
Events      
Averages and records for this station are not official NWS values.
T = Trace of Precipitation, MM = Missing Value Source: NWS Daily Summary

Daily Weather History Graph

Daily Weather History Graph

Search for Another Location

Airport or City:

Trip Planner

Search our weather history database for the weather conditions in past years. The results will help you decide how hot, cold, wet, or windy it might be!

Date:

Astronomy

Jun. 13, 2013 Rise Set
Actual Time 6:08 AM CDT 8:18 PM CDT
Civil Twilight 5:40 AM CDT 8:46 PM CDT
Nautical Twilight 5:06 AM CDT 9:20 PM CDT
Astronomical Twilight 4:29 AM CDT 9:57 PM CDT
Moon 10:31 AM CDT (6/13) 11:41 PM CDT (6/13)
Length of Visible Light 15h 06m
Length of Day
14h 10m
Waxing Crescent, 22% of the Moon is Illuminated
Jun 13
Waxing Crescent
Jun 16
First Quarter
Jun 23
Full
Jun 29
Last Quarter
Jul 8
New

Hourly Weather History & Observations

Time (CDT) Temp. Heat Index Dew Point Humidity Pressure Visibility Wind Dir Wind Speed Gust Speed Precip Events Conditions
12:56 AM 78.1 °F - 75.0 °F 90% 30.01 in 10.0 mi Calm Calm - N/A   Clear
1:56 AM 75.9 °F - 75.0 °F 97% 30.01 in 9.0 mi Calm Calm - N/A   Clear
2:56 AM 75.0 °F - 73.9 °F 96% 29.99 in 6.0 mi Calm Calm - N/A   Clear
3:56 AM 75.9 °F - 75.0 °F 97% 30.00 in 7.0 mi Calm Calm - N/A   Clear
4:44 AM 75.2 °F - 75.2 °F 100% 30.01 in 6.0 mi Calm Calm - N/A   Scattered Clouds
4:56 AM 75.9 °F - 75.0 °F 97% 30.00 in 6.0 mi SW 3.5 mph - N/A   Mostly Cloudy
5:10 AM 75.2 °F - 75.2 °F 100% 30.02 in 7.0 mi Calm Calm - N/A   Mostly Cloudy
5:56 AM 75.9 °F - 75.0 °F 97% 30.02 in 5.0 mi Calm Calm - N/A   Overcast
6:56 AM 75.9 °F - 75.0 °F 97% 30.04 in 4.0 mi Variable 3.5 mph - N/A   Overcast
7:56 AM 78.1 °F - 75.9 °F 93% 30.05 in 10.0 mi Variable 5.8 mph - N/A   Overcast
8:52 AM 80.6 °F 86.2 °F 75.2 °F 84% 30.07 in 10.0 mi Variable 5.8 mph - N/A   Overcast
8:56 AM 81.0 °F 86.7 °F 75.0 °F 82% 30.06 in 10.0 mi Variable 6.9 mph - N/A   Overcast
9:27 AM 82.4 °F 89.5 °F 75.2 °F 79% 30.07 in 10.0 mi Variable 3.5 mph - N/A   Overcast
9:56 AM 82.9 °F 89.4 °F 73.9 °F 74% 30.06 in 10.0 mi WSW 5.8 mph - N/A   Mostly Cloudy
10:22 AM 84.2 °F 90.9 °F 73.4 °F 70% 30.06 in 10.0 mi Variable 5.8 mph - N/A   Scattered Clouds
10:56 AM 86.0 °F 93.0 °F 73.0 °F 65% 30.05 in 10.0 mi Variable 5.8 mph - N/A   Mostly Cloudy
11:23 AM 87.8 °F 93.8 °F 71.6 °F 58% 30.06 in 10.0 mi Variable 4.6 mph - N/A   Scattered Clouds
11:56 AM 88.0 °F 94.7 °F 72.0 °F 59% 30.04 in 10.0 mi West 5.8 mph - N/A   Scattered Clouds
12:56 PM 89.1 °F 96.0 °F 72.0 °F 57% 30.02 in 10.0 mi Variable 6.9 mph - N/A   Mostly Cloudy
1:56 PM 89.1 °F 96.0 °F 72.0 °F 57% 30.00 in 10.0 mi WSW 6.9 mph - N/A   Mostly Cloudy
2:56 PM 91.0 °F 98.2 °F 72.0 °F 53% 29.98 in 10.0 mi WNW 6.9 mph - N/A   Scattered Clouds
3:56 PM 91.9 °F 98.4 °F 71.1 °F 50% 29.95 in 10.0 mi Variable 4.6 mph - N/A   Scattered Clouds
4:56 PM 93.0 °F 100.1 °F 71.1 °F 49% 29.93 in 10.0 mi West 4.6 mph - N/A   Scattered Clouds
5:56 PM 91.9 °F 98.4 °F 71.1 °F 50% 29.91 in 10.0 mi Variable 3.5 mph - N/A   Clear
6:56 PM 90.0 °F 96.9 °F 72.0 °F 55% 29.91 in 10.0 mi Calm Calm - N/A   Clear
7:56 PM 84.0 °F 92.6 °F 75.9 °F 76% 29.91 in 10.0 mi Calm Calm - N/A   Clear
8:56 PM 80.1 °F 85.8 °F 77.0 °F 90% 29.90 in 10.0 mi Calm Calm - N/A   Clear
9:56 PM 78.1 °F - 75.9 °F 93% 29.93 in 10.0 mi Calm Calm - N/A   Clear
10:56 PM 77.0 °F - 75.0 °F 94% 29.93 in 10.0 mi Calm Calm - N/A   Clear
11:56 PM 75.9 °F - 73.9 °F 94% 29.93 in 10.0 mi Calm Calm - N/A   Clear